Weather History for KCAD - October, 2012

Change the Weather History Date:

Wednesday, October 17, 2012

  Actual Average Record
Temperature  
Mean Temperature 57 °F -  
Max Temperature 71 °F 55 °F 78 °F (1953)
Min Temperature 43 °F 34 °F 13 °F (1952)
Degree Days  
Heating Degree Days 8    
Growing Degree Days 7 (Base 50)    
Moisture  
Dew Point 48 °F    
Average Humidity 70    
Maximum Humidity 88    
Minimum Humidity 45    
Precipitation  
Precipitation 0.00 in - - ()
Sea Level Pressure  
Sea Level Pressure 29.53 in    
Wind  
Wind Speed 8 mph (SSE)    
Max Wind Speed 20 mph    
Max Gust Speed 28 mph    
Visibility 10 miles    
Events Rain    
Averages and records for this station are not official NWS values.
T = Trace of Precipitation, MM = Missing Value Source: NWS Daily Summary

Daily Weather History Graph

Daily Weather History Graph

Search for Another Location

Airport or City:

Trip Planner

Search our weather history database for the weather conditions in past years. The results will help you decide how hot, cold, wet, or windy it might be!

Date:

Astronomy

Oct. 17, 2012 Rise Set
Actual Time 7:59 AM EDT 6:53 PM EDT
Civil Twilight 7:30 AM EDT 7:22 PM EDT
Nautical Twilight 6:56 AM EDT 7:56 PM EDT
Astronomical Twilight 6:23 AM EDT 8:29 PM EDT
Moon 10:40 AM EDT (10/17) 8:21 PM EDT (10/17)
Length of Visible Light 11h 52m
Length of Day
10h 53m
Waxing Crescent, 7% of the Moon is Illuminated
Oct 17
Waxing Crescent
Oct 21
First Quarter
Oct 29
Full
Nov 6
Last Quarter
Nov 13
New

Hourly Weather History & Observations

Time (EDT) Temp. Windchill Dew Point Humidity Pressure Visibility Wind Dir Wind Speed Gust Speed Precip Events Conditions
12:14 AM 51.4 °F - 40.5 °F 66% 29.64 in 10.0 mi SE 6.9 mph - N/A   Overcast
12:35 AM 52.0 °F - 40.6 °F 65% 29.64 in 10.0 mi SE 5.8 mph - N/A   Overcast
12:54 AM 52.7 °F - 41.0 °F 64% 29.63 in 10.0 mi SSE 8.1 mph - N/A   Overcast
1:14 AM 52.0 °F - 40.5 °F 65% 29.62 in 10.0 mi SE 4.6 mph - N/A   Overcast
1:35 AM 51.4 °F - 42.1 °F 70% 29.62 in 10.0 mi SE 8.1 mph - N/A Rain Heavy Rain
1:54 AM 51.4 °F - 43.9 °F 75% 29.62 in 10.0 mi SE 4.6 mph - N/A   Overcast
2:14 AM 51.4 °F - 44.2 °F 76% 29.61 in 10.0 mi SE 6.9 mph - N/A   Mostly Cloudy
2:34 AM 51.4 °F - 44.1 °F 76% 29.60 in 10.0 mi SE 8.1 mph - N/A   Scattered Clouds
2:54 AM 49.5 °F - 43.0 °F 78% 29.60 in 10.0 mi ESE 6.9 mph - N/A   Scattered Clouds
3:14 AM 48.4 °F - 42.8 °F 81% 29.59 in 10.0 mi SE 6.9 mph - N/A   Scattered Clouds
3:34 AM 46.4 °F 43.5 °F 41.2 °F 82% 29.59 in 10.0 mi ESE 5.8 mph - N/A   Clear
3:54 AM 46.9 °F - 41.4 °F 81% 29.58 in 10.0 mi SSE 3.5 mph - N/A   Clear
4:14 AM 47.3 °F - 41.7 °F 81% 29.57 in 10.0 mi SE 5.8 mph - N/A   Clear
4:34 AM 46.4 °F 43.5 °F 41.4 °F 83% 29.57 in 10.0 mi ESE 5.8 mph - N/A   Clear
4:54 AM 45.7 °F 43.4 °F 41.4 °F 85% 29.57 in 10.0 mi East 4.6 mph - N/A   Scattered Clouds
5:14 AM 46.0 °F 43.9 °F 41.9 °F 85% 29.56 in 10.0 mi ESE 4.6 mph - N/A   Clear
5:34 AM 45.1 °F 43.7 °F 41.0 °F 85% 29.56 in 10.0 mi SE 3.5 mph - N/A   Scattered Clouds
5:54 AM 48.7 °F - 44.1 °F 84% 29.57 in 10.0 mi SE 4.6 mph - N/A   Mostly Cloudy
6:14 AM 46.4 °F 44.3 °F 42.3 °F 85% 29.56 in 10.0 mi SE 4.6 mph - N/A   Mostly Cloudy
6:34 AM 49.8 °F - 44.8 °F 83% 29.55 in 10.0 mi SE 4.6 mph - N/A   Mostly Cloudy
6:54 AM 50.5 °F - 45.1 °F 82% 29.55 in 10.0 mi SE 4.6 mph - N/A   Scattered Clouds
7:14 AM 43.9 °F 41.3 °F 40.6 °F 88% 29.55 in 10.0 mi SE 4.6 mph - N/A   Clear
7:34 AM 43.9 °F 40.5 °F 40.6 °F 88% 29.55 in 10.0 mi ESE 5.8 mph - N/A   Clear
7:54 AM 45.1 °F 42.8 °F 41.9 °F 88% 29.54 in 10.0 mi SE 4.6 mph - N/A   Clear
8:14 AM 50.0 °F - 46.2 °F 87% 29.54 in 10.0 mi South 6.9 mph - N/A   Clear
8:34 AM 52.3 °F - 46.9 °F 82% 29.54 in 10.0 mi South 5.8 mph - N/A   Clear
8:54 AM 54.0 °F - 47.5 °F 79% 29.55 in 10.0 mi South 8.1 mph - N/A   Clear
9:14 AM 56.5 °F - 49.8 °F 78% 29.55 in 10.0 mi South 9.2 mph - N/A   Clear
9:34 AM 56.5 °F - 49.1 °F 76% 29.55 in 10.0 mi South 12.7 mph 17.3 mph N/A   Clear
9:54 AM 56.5 °F - 48.6 °F 75% 29.55 in 10.0 mi South 11.5 mph 17.3 mph N/A   Clear
10:14 AM 59.0 °F - 50.2 °F 73% 29.55 in 10.0 mi South 11.5 mph 19.6 mph N/A   Clear
10:34 AM 59.0 °F - 49.1 °F 70% 29.55 in 10.0 mi SSW 11.5 mph 19.6 mph N/A   Clear
10:54 AM 61.7 °F - 50.2 °F 66% 29.54 in 10.0 mi South 10.4 mph 16.1 mph N/A   Clear
11:15 AM 61.7 °F - 49.6 °F 65% 29.54 in 10.0 mi South 13.8 mph 17.3 mph N/A   Clear
11:34 AM 62.8 °F - 49.8 °F 63% 29.53 in 10.0 mi South 11.5 mph - N/A   Clear
11:54 AM 64.0 °F - 50.0 °F 60% 29.53 in 10.0 mi South 12.7 mph 18.4 mph N/A   Clear
12:15 PM 64.9 °F - 49.5 °F 57% 29.52 in 10.0 mi South 11.5 mph - N/A   Clear
12:34 PM 66.6 °F - 50.2 °F 56% 29.52 in 10.0 mi South 12.7 mph 17.3 mph N/A   Clear
12:54 PM 66.6 °F - 48.9 °F 53% 29.52 in 10.0 mi South 11.5 mph 18.4 mph N/A   Clear
1:15 PM 69.1 °F - 50.5 °F 52% 29.52 in 10.0 mi South 12.7 mph 19.6 mph N/A   Scattered Clouds
1:34 PM 70.7 °F - 50.9 °F 49% 29.51 in 10.0 mi South 15.0 mph 19.6 mph N/A   Scattered Clouds
1:54 PM 71.6 °F - 51.3 °F 49% 29.51 in 10.0 mi South 11.5 mph 16.1 mph N/A   Clear
2:15 PM 71.6 °F - 50.4 °F 47% 29.50 in 10.0 mi South 12.7 mph 18.4 mph N/A   Clear
2:34 PM 71.6 °F - 49.5 °F 45% 29.50 in 10.0 mi South 11.5 mph 18.4 mph N/A   Clear
2:54 PM 71.6 °F - 49.3 °F 45% 29.49 in 10.0 mi SSE 13.8 mph - N/A   Clear
3:15 PM 71.6 °F - 49.5 °F 45% 29.49 in 10.0 mi South 11.5 mph 21.9 mph N/A   Clear
3:34 PM 71.6 °F - 49.1 °F 45% 29.49 in 10.0 mi South 15.0 mph 23.0 mph N/A   Scattered Clouds
3:54 PM 69.6 °F - 48.4 °F 47% 29.49 in 10.0 mi South 11.5 mph 19.6 mph N/A   Mostly Cloudy
4:14 PM 69.6 °F - 47.5 °F 45% 29.49 in 10.0 mi South 16.1 mph 20.7 mph N/A   Mostly Cloudy
4:34 PM 69.1 °F - 47.7 °F 46% 29.49 in 10.0 mi South 13.8 mph 17.3 mph N/A   Overcast
4:54 PM 69.1 °F - 46.9 °F 45% 29.47 in 10.0 mi South 13.8 mph 19.6 mph N/A   Overcast
5:14 PM 69.1 °F - 47.5 °F 46% 29.47 in 10.0 mi South 10.4 mph 16.1 mph N/A   Overcast
5:34 PM 69.1 °F - 48.6 °F 48% 29.47 in 10.0 mi SSE 9.2 mph - N/A   Overcast
5:54 PM 66.7 °F - 46.4 °F 48% 29.47 in 10.0 mi South 9.2 mph 16.1 mph N/A   Overcast
6:14 PM 66.2 °F - 47.7 °F 51% 29.47 in 10.0 mi SSE 19.6 mph 27.6 mph N/A   Overcast
6:34 PM 61.9 °F - 51.4 °F 69% 29.49 in 10.0 mi South 9.2 mph - N/A Rain Rain
6:54 PM 61.7 °F - 53.6 °F 75% 29.49 in 10.0 mi South 3.5 mph - N/A   Light Drizzle
7:14 PM 60.3 °F - 52.7 °F 76% 29.49 in 10.0 mi SSE 5.8 mph - N/A   Overcast
7:34 PM 59.5 °F - 52.0 °F 76% 29.48 in 10.0 mi South 6.9 mph - N/A   Overcast
7:54 PM 61.2 °F - 52.9 °F 74% 29.47 in 10.0 mi SSE 5.8 mph - N/A   Overcast
8:14 PM 61.7 °F - 51.1 °F 68% 29.47 in 10.0 mi SSE 6.9 mph - N/A   Overcast
8:34 PM 61.7 °F - 50.9 °F 68% 29.48 in 10.0 mi South 18.4 mph 24.2 mph N/A   Overcast
8:54 PM 59.0 °F - 53.4 °F 82% 29.48 in 10.0 mi South 13.8 mph 17.3 mph N/A Rain Light Rain
9:14 PM 59.0 °F - 54.7 °F 86% 29.48 in 10.0 mi South 10.4 mph - N/A Rain Rain
9:34 PM 57.7 °F - 53.8 °F 87% 29.47 in 10.0 mi South 15.0 mph 23.0 mph N/A   Drizzle
9:54 PM 57.7 °F - 53.6 °F 86% 29.47 in 10.0 mi SSE 12.7 mph 17.3 mph N/A Rain Rain
10:14 PM 57.7 °F - 53.6 °F 86% 29.47 in 10.0 mi SSE 13.8 mph 20.7 mph N/A   Drizzle
10:34 PM 57.4 °F - 52.9 °F 85% 29.47 in 10.0 mi SSE 17.3 mph 24.2 mph N/A Rain Light Rain
10:54 PM 56.5 °F - 52.2 °F 85% 29.46 in 10.0 mi SSE 15.0 mph 20.7 mph N/A Rain Light Rain
11:14 PM 56.5 °F - 52.2 °F 85% 29.46 in 10.0 mi SE 12.7 mph 20.7 mph N/A Rain Light Rain
11:35 PM 56.5 °F - 52.3 °F 86% 29.45 in 10.0 mi SE 13.8 mph 21.9 mph N/A Rain Light Rain
11:54 PM 56.5 °F - 52.3 °F 86% 29.44 in 10.0 mi SSE 18.4 mph 25.3 mph N/A   Light Drizzle